Time,TemperatureF,DewpointF,PressureIn,WindDirection,WindDirectionDegrees,WindSpeedMPH,WindSpeedGustMPH,Humidity,HourlyPrecipIn,Conditions,Clouds,dailyrainin,SoftwareType,DateUTC
2013-01-17 00:00:00,33.5,24.3,29.97,NW,315,0.4,2.2,69,0.00,,,0.00,WUHU216HW,2013-01-17 05:00:00,
2013-01-17 00:01:00,33.5,24.3,29.98,NW,315,0.9,2.2,69,0.00,,,0.00,WUHU216HW,2013-01-17 05:01:00,
2013-01-17 00:03:00,33.5,24.3,29.98,NNW,338,0.0,2.2,69,0.00,,,0.00,WUHU216HW,2013-01-17 05:03:00,
2013-01-17 00:08:00,33.5,24.7,29.98,NW,315,0.9,2.0,70,0.00,,,0.00,WUHU216HW,2013-01-17 05:08:00,
2013-01-17 00:13:00,33.5,24.7,29.98,NW,315,0.7,2.0,70,0.00,,,0.00,WUHU216HW,2013-01-17 05:13:00,
2013-01-17 00:18:00,33.5,24.7,29.98,WNW,293,2.5,2.5,70,0.00,,,0.00,WUHU216HW,2013-01-17 05:18:00,
2013-01-17 00:23:00,33.5,24.3,29.98,WNW,293,0.4,2.5,69,0.00,,,0.00,WUHU216HW,2013-01-17 05:23:00,
2013-01-17 00:28:00,33.5,24.3,29.98,NW,315,2.0,2.0,69,0.00,,,0.00,WUHU216HW,2013-01-17 05:28:00,
2013-01-17 00:33:00,33.5,24.3,29.99,NW,315,0.7,2.0,69,0.00,,,0.00,WUHU216HW,2013-01-17 05:33:00,
2013-01-17 00:38:00,33.5,24.7,29.99,NW,315,1.1,2.2,70,0.00,,,0.00,WUHU216HW,2013-01-17 05:38:00,
2013-01-17 00:43:00,33.5,24.7,29.99,NW,315,1.6,2.2,70,0.00,,,0.00,WUHU216HW,2013-01-17 05:43:00,
2013-01-17 00:48:00,33.7,24.8,29.99,WNW,293,0.9,2.0,70,0.00,,,0.00,WUHU216HW,2013-01-17 05:48:00,
2013-01-17 00:53:00,33.7,24.8,29.99,WNW,293,1.8,1.8,70,0.00,,,0.00,WUHU216HW,2013-01-17 05:53:00,
2013-01-17 00:58:00,33.7,24.8,30.00,WNW,293,1.8,1.8,70,0.00,,,0.00,WUHU216HW,2013-01-17 05:58:00,
2013-01-17 01:03:00,33.7,24.8,30.00,NNW,338,1.3,1.8,70,0.00,,,0.00,WUHU216HW,2013-01-17 06:03:00,
2013-01-17 01:08:00,33.7,24.8,30.00,NW,315,1.8,1.8,70,0.00,,,0.00,WUHU216HW,2013-01-17 06:08:00,
2013-01-17 01:13:00,33.7,24.8,30.00,NW,315,0.2,1.8,70,0.00,,,0.00,WUHU216HW,2013-01-17 06:13:00,
2013-01-17 01:18:00,33.7,24.8,30.00,NW,315,0.0,1.8,70,0.00,,,0.00,WUHU216HW,2013-01-17 06:18:00,
2013-01-17 01:23:00,33.7,24.8,30.01,NNW,338,1.3,2.2,70,0.00,,,0.00,WUHU216HW,2013-01-17 06:23:00,
2013-01-17 01:28:00,33.7,24.8,30.01,North,0,0.4,2.2,70,0.00,,,0.00,WUHU216HW,2013-01-17 06:28:00,
2013-01-17 01:33:00,33.7,24.8,30.01,NW,315,0.7,1.8,70,0.00,,,0.00,WUHU216HW,2013-01-17 06:33:00,
2013-01-17 01:38:00,33.7,24.8,30.01,NW,315,1.1,2.5,70,0.00,,,0.00,WUHU216HW,2013-01-17 06:38:00,
2013-01-17 01:43:00,33.7,25.2,30.01,NW,315,0.9,2.5,71,0.00,,,0.00,WUHU216HW,2013-01-17 06:43:00,
2013-01-17 01:48:00,33.8,25.4,30.01,NW,315,0.7,1.6,71,0.00,,,0.00,WUHU216HW,2013-01-17 06:48:00,
2013-01-17 01:53:00,33.8,25.4,30.02,NW,315,0.4,1.1,71,0.00,,,0.00,WUHU216HW,2013-01-17 06:53:00,
2013-01-17 01:58:00,33.7,25.2,30.02,NW,315,1.1,2.2,71,0.00,,,0.00,WUHU216HW,2013-01-17 06:58:00,
2013-01-17 02:03:00,33.8,25.4,30.02,WNW,293,1.3,2.2,71,0.00,,,0.00,WUHU216HW,2013-01-17 07:03:00,
2013-01-17 02:08:00,33.7,25.2,30.03,WNW,293,1.1,1.6,71,0.00,,,0.00,WUHU216HW,2013-01-17 07:08:00,
2013-01-17 02:13:00,33.8,25.4,30.03,WSW,248,1.1,1.6,71,0.00,,,0.00,WUHU216HW,2013-01-17 07:13:00,
2013-01-17 02:18:00,33.8,25.4,30.03,WNW,293,1.6,2.5,71,0.00,,,0.00,WUHU216HW,2013-01-17 07:18:00,
2013-01-17 02:23:00,33.8,25.4,30.03,WNW,293,1.1,2.5,71,0.00,,,0.00,WUHU216HW,2013-01-17 07:23:00,
2013-01-17 02:28:00,33.8,25.4,30.03,NW,315,1.1,1.3,71,0.00,,,0.00,WUHU216HW,2013-01-17 07:28:00,
2013-01-17 02:33:00,33.8,25.4,30.03,NW,315,0.4,1.8,71,0.00,,,0.00,WUHU216HW,2013-01-17 07:33:00,
2013-01-17 02:38:00,33.8,25.4,30.04,WNW,293,0.9,1.8,71,0.00,,,0.00,WUHU216HW,2013-01-17 07:38:00,
2013-01-17 02:43:00,33.8,25.0,30.04,WNW,293,0.4,2.5,70,0.00,,,0.00,WUHU216HW,2013-01-17 07:43:00,
2013-01-17 02:48:00,33.8,25.4,30.04,WNW,293,1.1,2.5,71,0.00,,,0.00,WUHU216HW,2013-01-17 07:48:00,
2013-01-17 02:53:00,33.8,25.4,30.04,NNW,338,4.0,4.0,71,0.00,,,0.00,WUHU216HW,2013-01-17 07:53:00,
2013-01-17 02:58:00,33.8,25.4,30.05,WNW,293,0.4,4.0,71,0.00,,,0.00,WUHU216HW,2013-01-17 07:58:00,
2013-01-17 03:03:00,33.8,25.0,30.04,WNW,293,1.1,2.0,70,0.00,,,0.00,WUHU216HW,2013-01-17 08:03:00,
2013-01-17 03:08:00,34.0,25.2,30.05,West,270,0.2,2.0,70,0.00,,,0.00,WUHU216HW,2013-01-17 08:08:00,
2013-01-17 03:13:00,34.0,25.2,30.05,WNW,293,1.1,1.8,70,0.00,,,0.00,WUHU216HW,2013-01-17 08:13:00,
2013-01-17 03:18:00,33.8,25.0,30.06,WNW,293,0.7,1.3,70,0.00,,,0.00,WUHU216HW,2013-01-17 08:18:00,
2013-01-17 03:23:00,33.8,25.0,30.06,North,0,0.9,1.6,70,0.00,,,0.00,WUHU216HW,2013-01-17 08:23:00,
2013-01-17 03:28:00,33.8,25.0,30.06,NW,315,0.4,2.2,70,0.00,,,0.00,WUHU216HW,2013-01-17 08:28:00,
2013-01-17 03:33:00,33.8,25.0,30.06,WNW,293,1.8,2.2,70,0.00,,,0.00,WUHU216HW,2013-01-17 08:33:00,
2013-01-17 03:38:00,33.8,25.4,30.06,West,270,0.9,1.8,71,0.00,,,0.00,WUHU216HW,2013-01-17 08:38:00,
2013-01-17 03:43:00,33.7,25.2,30.06,NW,315,0.4,1.1,71,0.00,,,0.00,WUHU216HW,2013-01-17 08:43:00,
2013-01-17 03:48:00,33.7,25.2,30.06,NW,315,0.2,1.1,71,0.00,,,0.00,WUHU216HW,2013-01-17 08:48:00,
2013-01-17 03:53:00,33.7,25.2,30.06,WNW,293,1.3,1.3,71,0.00,,,0.00,WUHU216HW,2013-01-17 08:53:00,
2013-01-17 03:58:00,33.5,25.0,30.06,NW,315,0.2,1.3,71,0.00,,,0.00,WUHU216HW,2013-01-17 08:58:00,
2013-01-17 04:03:00,33.7,25.2,30.06,NW,315,0.2,1.1,71,0.00,,,0.00,WUHU216HW,2013-01-17 09:03:00,
2013-01-17 04:08:00,33.7,25.2,30.06,NW,315,0.4,1.1,71,0.00,,,0.00,WUHU216HW,2013-01-17 09:08:00,
2013-01-17 04:13:00,33.7,25.2,30.07,WNW,293,0.4,0.7,71,0.00,,,0.00,WUHU216HW,2013-01-17 09:13:00,
2013-01-17 04:18:00,33.7,25.2,30.07,West,270,0.0,0.7,71,0.00,,,0.00,WUHU216HW,2013-01-17 09:18:00,
2013-01-17 04:23:00,33.7,25.2,30.07,WSW,248,0.0,0.4,71,0.00,,,0.00,WUHU216HW,2013-01-17 09:23:00,
2013-01-17 04:28:00,33.5,25.4,30.07,NW,315,0.0,0.4,72,0.00,,,0.00,WUHU216HW,2013-01-17 09:28:00,
2013-01-17 04:33:00,33.7,25.5,30.08,NW,315,0.7,0.7,72,0.00,,,0.00,WUHU216HW,2013-01-17 09:33:00,
2013-01-17 04:38:00,33.7,25.5,30.08,WNW,293,0.0,0.7,72,0.00,,,0.00,WUHU216HW,2013-01-17 09:38:00,
2013-01-17 04:43:00,33.5,25.4,30.08,NW,315,0.2,0.7,72,0.00,,,0.00,WUHU216HW,2013-01-17 09:43:00,
2013-01-17 04:48:00,33.5,25.4,30.09,WNW,293,0.0,0.7,72,0.00,,,0.00,WUHU216HW,2013-01-17 09:48:00,
2013-01-17 04:53:00,33.5,25.4,30.09,WNW,293,1.3,1.3,72,0.00,,,0.00,WUHU216HW,2013-01-17 09:53:00,
2013-01-17 04:58:00,33.5,25.4,30.09,WNW,293,0.0,1.3,72,0.00,,,0.00,WUHU216HW,2013-01-17 09:58:00,
2013-01-17 05:03:00,33.5,25.4,30.09,SW,225,0.4,0.9,72,0.00,,,0.00,WUHU216HW,2013-01-17 10:03:00,
2013-01-17 05:08:00,33.5,25.4,30.09,SW,225,0.0,0.4,72,0.00,,,0.00,WUHU216HW,2013-01-17 10:08:00,
2013-01-17 05:13:00,33.5,25.4,30.11,NW,315,0.2,1.1,72,0.00,,,0.00,WUHU216HW,2013-01-17 10:13:00,
2013-01-17 05:18:00,33.5,25.4,30.11,NW,315,0.0,1.1,72,0.00,,,0.00,WUHU216HW,2013-01-17 10:18:00,
2013-01-17 05:23:00,33.5,25.4,30.11,NW,315,0.0,0.7,72,0.00,,,0.00,WUHU216HW,2013-01-17 10:23:00,
2013-01-17 05:28:00,33.5,25.4,30.11,NW,315,0.0,0.7,72,0.00,,,0.00,WUHU216HW,2013-01-17 10:28:00,
2013-01-17 05:33:00,33.3,25.2,30.11,NNW,338,0.0,0.0,72,0.00,,,0.00,WUHU216HW,2013-01-17 10:33:00,
2013-01-17 05:38:00,32.9,24.8,30.11,NNW,338,0.0,0.0,72,0.00,,,0.00,WUHU216HW,2013-01-17 10:38:00,
2013-01-17 05:43:00,32.8,24.7,30.12,NW,315,0.2,0.2,72,0.00,,,0.00,WUHU216HW,2013-01-17 10:43:00,
2013-01-17 05:48:00,32.6,24.6,30.12,NW,315,0.7,0.7,72,0.00,,,0.00,WUHU216HW,2013-01-17 10:48:00,
2013-01-17 05:53:00,32.4,24.7,30.13,NW,315,0.2,0.7,73,0.00,,,0.00,WUHU216HW,2013-01-17 10:53:00,
2013-01-17 05:58:00,32.4,24.7,30.13,WNW,293,0.0,0.4,73,0.00,,,0.00,WUHU216HW,2013-01-17 10:58:00,
2013-01-17 06:03:00,32.2,24.6,30.14,NW,315,0.7,0.7,73,0.00,,,0.00,WUHU216HW,2013-01-17 11:03:00,
2013-01-17 06:08:00,32.2,24.6,30.14,WNW,293,0.2,0.7,73,0.00,,,0.00,WUHU216HW,2013-01-17 11:08:00,
2013-01-17 06:13:00,32.0,24.4,30.14,WNW,293,0.0,0.2,73,0.00,,,0.00,WUHU216HW,2013-01-17 11:13:00,
2013-01-17 06:18:00,31.9,24.2,30.14,West,270,0.2,0.2,73,0.00,,,0.00,WUHU216HW,2013-01-17 11:18:00,
2013-01-17 06:23:00,31.9,24.2,30.14,NW,315,0.7,0.7,73,0.00,,,0.00,WUHU216HW,2013-01-17 11:23:00,
2013-01-17 06:28:00,31.7,24.0,30.14,NW,315,0.2,0.7,73,0.00,,,0.00,WUHU216HW,2013-01-17 11:28:00,
2013-01-17 06:33:00,31.7,24.0,30.14,NW,315,0.4,0.7,73,0.00,,,0.00,WUHU216HW,2013-01-17 11:33:00,
2013-01-17 06:38:00,31.7,24.0,30.14,NW,315,0.0,0.9,73,0.00,,,0.00,WUHU216HW,2013-01-17 11:38:00,
2013-01-17 06:43:00,31.7,24.0,30.14,NW,315,0.0,0.9,73,0.00,,,0.00,WUHU216HW,2013-01-17 11:43:00,
2013-01-17 06:48:00,31.5,23.9,30.15,NW,315,1.1,1.1,73,0.00,,,0.00,WUHU216HW,2013-01-17 11:48:00,
2013-01-17 06:53:00,31.5,23.9,30.15,WSW,248,0.2,1.1,73,0.00,,,0.00,WUHU216HW,2013-01-17 11:53:00,
2013-01-17 06:58:00,31.3,23.7,30.15,WNW,293,0.4,0.7,73,0.00,,,0.00,WUHU216HW,2013-01-17 11:58:00,
2013-01-17 07:03:00,31.3,23.7,30.15,WSW,248,0.4,1.1,73,0.00,,,0.00,WUHU216HW,2013-01-17 12:03:00,
2013-01-17 07:08:00,31.3,23.7,30.15,West,270,0.0,1.1,73,0.00,,,0.00,WUHU216HW,2013-01-17 12:08:00,
2013-01-17 07:13:00,31.3,23.7,30.15,West,270,0.4,1.1,73,0.00,,,0.00,WUHU216HW,2013-01-17 12:13:00,
2013-01-17 07:18:00,31.1,23.5,30.15,West,270,0.0,1.8,73,0.00,,,0.00,WUHU216HW,2013-01-17 12:18:00,
2013-01-17 07:23:00,31.3,23.7,30.15,West,270,0.4,1.8,73,0.00,,,0.00,WUHU216HW,2013-01-17 12:23:00,
2013-01-17 07:28:00,31.1,23.5,30.15,WNW,293,0.2,0.7,73,0.00,,,0.00,WUHU216HW,2013-01-17 12:28:00,
2013-01-17 07:33:00,31.0,23.3,30.15,West,270,0.0,1.1,73,0.00,,,0.00,WUHU216HW,2013-01-17 12:33:00,
2013-01-17 07:38:00,31.0,23.0,30.16,NW,315,0.0,1.1,72,0.00,,,0.00,WUHU216HW,2013-01-17 12:38:00,
2013-01-17 07:43:00,30.8,23.1,30.16,NW,315,0.0,0.9,73,0.00,,,0.00,WUHU216HW,2013-01-17 12:43:00,
2013-01-17 07:48:00,30.8,23.1,30.16,NW,315,0.0,0.7,73,0.00,,,0.00,WUHU216HW,2013-01-17 12:48:00,
2013-01-17 07:53:00,30.6,23.0,30.15,NW,315,0.9,0.9,73,0.00,,,0.00,WUHU216HW,2013-01-17 12:53:00,
2013-01-17 07:58:00,30.6,22.6,30.16,NW,315,1.3,1.3,72,0.00,,,0.00,WUHU216HW,2013-01-17 12:58:00,
2013-01-17 08:03:00,30.6,22.6,30.16,WNW,293,0.2,1.3,72,0.00,,,0.00,WUHU216HW,2013-01-17 13:03:00,
2013-01-17 08:08:00,30.6,22.6,30.16,NW,315,0.4,0.4,72,0.00,,,0.00,WUHU216HW,2013-01-17 13:08:00,
2013-01-17 08:13:00,30.4,22.4,30.16,WNW,293,0.2,1.3,72,0.00,,,0.00,WUHU216HW,2013-01-17 13:13:00,
2013-01-17 08:18:00,30.4,22.4,30.16,West,270,1.1,1.8,72,0.00,,,0.00,WUHU216HW,2013-01-17 13:18:00,
2013-01-17 08:23:00,30.4,22.4,30.16,West,270,0.2,1.8,72,0.00,,,0.00,WUHU216HW,2013-01-17 13:23:00,
2013-01-17 08:28:00,30.4,22.4,30.16,West,270,0.7,0.9,72,0.00,,,0.00,WUHU216HW,2013-01-17 13:28:00,
2013-01-17 08:33:00,30.4,22.4,30.16,WNW,293,0.9,0.9,72,0.00,,,0.00,WUHU216HW,2013-01-17 13:33:00,
2013-01-17 08:38:00,30.2,22.2,30.16,NW,315,1.1,1.6,72,0.00,,,0.00,WUHU216HW,2013-01-17 13:38:00,
2013-01-17 08:43:00,30.4,22.4,30.17,WSW,248,0.4,1.6,72,0.00,,,0.00,WUHU216HW,2013-01-17 13:43:00,
2013-01-17 08:48:00,30.4,22.2,30.17,West,270,0.7,1.1,71,0.00,,,0.00,WUHU216HW,2013-01-17 13:48:00,
2013-01-17 08:53:00,30.4,22.2,30.18,WSW,248,0.0,1.1,71,0.00,,,0.00,WUHU216HW,2013-01-17 13:53:00,
2013-01-17 08:58:00,30.2,22.0,30.18,West,270,0.7,1.3,71,0.00,,,0.00,WUHU216HW,2013-01-17 13:58:00,
2013-01-17 09:03:00,30.2,22.0,30.19,West,270,1.1,1.3,71,0.00,,,0.00,WUHU216HW,2013-01-17 14:03:00,
2013-01-17 09:08:00,30.2,22.0,30.19,West,270,0.7,1.1,71,0.00,,,0.00,WUHU216HW,2013-01-17 14:08:00,
2013-01-17 09:13:00,30.1,21.8,30.20,SSE,158,0.7,1.3,71,0.00,,,0.00,WUHU216HW,2013-01-17 14:13:00,
2013-01-17 09:18:00,29.9,22.0,30.20,SSE,158,1.3,1.8,72,0.00,,,0.00,WUHU216HW,2013-01-17 14:18:00,
2013-01-17 09:23:00,29.9,22.0,30.21,West,270,0.4,1.8,72,0.00,,,0.00,WUHU216HW,2013-01-17 14:23:00,
2013-01-17 09:28:00,29.9,22.0,30.22,WNW,293,1.6,1.6,72,0.00,,,0.00,WUHU216HW,2013-01-17 14:28:00,
2013-01-17 09:33:00,30.2,22.2,30.22,ESE,113,0.9,1.8,72,0.00,,,0.00,WUHU216HW,2013-01-17 14:33:00,
2013-01-17 09:38:00,30.4,22.4,30.21,West,270,0.9,1.8,72,0.00,,,0.00,WUHU216HW,2013-01-17 14:38:00,
2013-01-17 09:43:00,30.8,22.5,30.21,SSE,158,1.8,1.8,71,0.00,,,0.00,WUHU216HW,2013-01-17 14:43:00,
2013-01-17 09:48:00,31.0,22.7,30.22,West,270,0.4,2.5,71,0.00,,,0.00,WUHU216HW,2013-01-17 14:48:00,
2013-01-17 09:53:00,31.3,22.7,30.22,North,0,1.1,2.5,70,0.00,,,0.00,WUHU216HW,2013-01-17 14:53:00,
2013-01-17 09:58:00,31.7,23.0,30.22,SW,225,0.4,1.6,70,0.00,,,0.00,WUHU216HW,2013-01-17 14:58:00,
2013-01-17 10:03:00,32.0,23.0,30.22,SSE,158,1.1,1.6,69,0.00,,,0.00,WUHU216HW,2013-01-17 15:03:00,
2013-01-17 10:08:00,32.2,23.6,30.22,West,270,0.4,2.2,70,0.00,,,0.00,WUHU216HW,2013-01-17 15:08:00,
2013-01-17 10:13:00,32.2,23.6,30.22,West,270,0.2,3.1,70,0.00,,,0.00,WUHU216HW,2013-01-17 15:13:00,
2013-01-17 10:18:00,33.3,25.8,30.22,West,270,1.8,3.1,74,0.00,,,0.00,WUHU216HW,2013-01-17 15:18:00,
2013-01-17 10:23:00,33.5,25.0,30.23,NNW,338,1.8,2.5,71,0.00,,,0.00,WUHU216HW,2013-01-17 15:23:00,
2013-01-17 10:28:00,32.9,23.9,30.23,SSW,203,2.7,4.5,69,0.00,,,0.00,WUHU216HW,2013-01-17 15:28:00,
2013-01-17 10:33:00,32.9,23.9,30.24,NW,315,1.6,4.5,69,0.00,,,0.00,WUHU216HW,2013-01-17 15:33:00,
2013-01-17 10:38:00,33.1,24.4,30.24,NNW,338,1.8,3.1,70,0.00,,,0.00,WUHU216HW,2013-01-17 15:38:00,
2013-01-17 10:43:00,33.3,24.2,30.24,NW,315,1.8,3.1,69,0.00,,,0.00,WUHU216HW,2013-01-17 15:43:00,
2013-01-17 10:48:00,33.3,23.9,30.24,West,270,1.6,2.2,68,0.00,,,0.00,WUHU216HW,2013-01-17 15:48:00,
2013-01-17 10:53:00,33.7,24.1,30.24,WNW,293,1.8,3.1,68,0.00,,,0.00,WUHU216HW,2013-01-17 15:53:00,
2013-01-17 10:58:00,33.8,23.6,30.24,West,270,1.3,3.1,66,0.00,,,0.00,WUHU216HW,2013-01-17 15:58:00,
2013-01-17 11:03:00,33.8,23.6,30.24,NNE,23,0.4,3.4,66,0.00,,,0.00,WUHU216HW,2013-01-17 16:03:00,
2013-01-17 11:08:00,33.8,22.9,30.24,North,0,2.2,3.4,64,0.00,,,0.00,WUHU216HW,2013-01-17 16:08:00,
2013-01-17 11:13:00,34.2,23.2,30.24,WSW,248,2.0,3.1,64,0.00,,,0.00,WUHU216HW,2013-01-17 16:13:00,
2013-01-17 11:18:00,34.4,23.0,30.24,WNW,293,1.8,2.9,63,0.00,,,0.00,WUHU216HW,2013-01-17 16:18:00,
2013-01-17 11:23:00,34.9,23.2,30.24,WNW,293,1.6,2.7,62,0.00,,,0.00,WUHU216HW,2013-01-17 16:23:00,
2013-01-17 11:28:00,35.3,23.9,30.23,NW,315,0.4,2.2,63,0.00,,,0.00,WUHU216HW,2013-01-17 16:28:00,
2013-01-17 11:33:00,35.3,23.2,30.23,WSW,248,2.5,4.9,61,0.00,,,0.00,WUHU216HW,2013-01-17 16:33:00,
2013-01-17 11:38:00,35.5,23.8,30.22,WNW,293,1.1,4.9,62,0.00,,,0.00,WUHU216HW,2013-01-17 16:38:00,
2013-01-17 11:43:00,35.8,23.8,30.22,West,270,1.1,2.0,61,0.00,,,0.00,WUHU216HW,2013-01-17 16:43:00,
2013-01-17 11:48:00,35.8,23.4,30.22,WNW,293,0.7,2.0,60,0.00,,,0.00,WUHU216HW,2013-01-17 16:48:00,
2013-01-17 11:53:00,35.5,23.0,30.22,West,270,3.6,3.6,60,0.00,,,0.00,WUHU216HW,2013-01-17 16:53:00,
2013-01-17 11:58:00,35.1,22.7,30.21,WNW,293,1.1,3.6,60,0.00,,,0.00,WUHU216HW,2013-01-17 16:58:00,
2013-01-17 12:03:00,35.5,23.0,30.21,West,270,1.1,2.7,60,0.00,,,0.00,WUHU216HW,2013-01-17 17:03:00,
2013-01-17 12:08:00,36.0,23.6,30.21,NW,315,1.8,2.7,60,0.00,,,0.00,WUHU216HW,2013-01-17 17:08:00,
2013-01-17 12:13:00,36.5,24.0,30.21,NW,315,3.4,3.4,60,0.00,,,0.00,WUHU216HW,2013-01-17 17:13:00,
2013-01-17 12:18:00,36.9,24.0,30.21,NW,315,1.8,3.4,59,0.00,,,0.00,WUHU216HW,2013-01-17 17:18:00,
2013-01-17 12:29:00,37.1,24.1,30.20,NW,315,2.2,4.3,59,0.00,,,0.00,WUHU216HW,2013-01-17 17:29:00,
2013-01-17 12:34:00,37.4,23.9,30.19,NW,315,3.1,4.0,58,0.00,,,0.00,WUHU216HW,2013-01-17 17:34:00,
2013-01-17 12:39:00,38.0,24.5,30.19,WNW,293,2.5,4.0,58,0.00,,,0.00,WUHU216HW,2013-01-17 17:39:00,
2013-01-17 12:44:00,38.3,24.8,30.19,WNW,293,1.8,2.5,58,0.00,,,0.00,WUHU216HW,2013-01-17 17:44:00,
2013-01-17 12:49:00,38.9,25.3,30.19,West,270,0.4,2.7,58,0.00,,,0.00,WUHU216HW,2013-01-17 17:49:00,
2013-01-17 12:54:00,39.2,25.6,30.19,NW,315,0.9,2.7,58,0.00,,,0.00,WUHU216HW,2013-01-17 17:54:00,
2013-01-17 12:59:00,40.1,27.7,30.19,West,270,1.8,2.0,61,0.00,,,0.00,WUHU216HW,2013-01-17 17:59:00,
2013-01-17 13:04:00,40.3,26.2,30.19,WNW,293,2.5,3.1,57,0.00,,,0.00,WUHU216HW,2013-01-17 18:04:00,
2013-01-17 13:09:00,39.6,24.7,30.18,West,270,3.8,3.8,55,0.00,,,0.00,WUHU216HW,2013-01-17 18:09:00,
2013-01-17 13:14:00,39.2,24.8,30.18,NW,315,1.8,3.8,56,0.00,,,0.00,WUHU216HW,2013-01-17 18:14:00,
2013-01-17 13:19:00,38.9,23.9,30.18,NW,315,4.0,4.0,55,0.00,,,0.00,WUHU216HW,2013-01-17 18:19:00,
2013-01-17 13:24:00,38.9,24.4,30.18,NW,315,1.6,4.0,56,0.00,,,0.00,WUHU216HW,2013-01-17 18:24:00,
2013-01-17 13:29:00,39.6,25.5,30.18,NW,315,2.9,3.6,57,0.00,,,0.00,WUHU216HW,2013-01-17 18:29:00,
2013-01-17 13:34:00,40.3,25.7,30.18,WNW,293,2.5,4.7,56,0.00,,,0.00,WUHU216HW,2013-01-17 18:34:00,
2013-01-17 13:39:00,40.7,25.2,30.17,NW,315,2.9,4.9,54,0.00,,,0.00,WUHU216HW,2013-01-17 18:39:00,
2013-01-17 13:44:00,40.7,25.7,30.17,NW,315,2.5,4.9,55,0.00,,,0.00,WUHU216HW,2013-01-17 18:44:00,
2013-01-17 13:49:00,40.3,24.5,30.17,West,270,1.3,3.4,53,0.00,,,0.00,WUHU216HW,2013-01-17 18:49:00,
2013-01-17 13:54:00,40.0,24.1,30.17,WNW,293,2.7,3.4,53,0.00,,,0.00,WUHU216HW,2013-01-17 18:54:00,
2013-01-17 13:59:00,40.0,24.1,30.17,NNW,338,1.8,2.9,53,0.00,,,0.00,WUHU216HW,2013-01-17 18:59:00,
2013-01-17 14:04:00,40.9,25.4,30.17,WNW,293,1.1,2.0,54,0.00,,,0.00,WUHU216HW,2013-01-17 19:04:00,
2013-01-17 14:09:00,41.6,25.2,30.17,NW,315,1.8,4.5,52,0.00,,,0.00,WUHU216HW,2013-01-17 19:09:00,
2013-01-17 14:14:00,41.0,24.2,30.17,WNW,293,1.8,4.5,51,0.00,,,0.00,WUHU216HW,2013-01-17 19:14:00,
2013-01-17 14:19:00,40.7,23.9,30.17,NW,315,3.4,3.4,51,0.00,,,0.00,WUHU216HW,2013-01-17 19:19:00,
2013-01-17 14:24:00,40.1,23.0,30.16,NW,315,3.4,3.4,50,0.00,,,0.00,WUHU216HW,2013-01-17 19:24:00,
2013-01-17 14:29:00,39.8,23.0,30.16,WSW,248,3.4,3.4,51,0.00,,,0.00,WUHU216HW,2013-01-17 19:29:00,
2013-01-17 14:34:00,39.8,23.5,30.16,West,270,1.8,3.4,52,0.00,,,0.00,WUHU216HW,2013-01-17 19:34:00,
2013-01-17 14:39:00,40.0,22.8,30.16,West,270,3.4,3.8,50,0.00,,,0.00,WUHU216HW,2013-01-17 19:39:00,
2013-01-17 14:44:00,39.6,22.9,30.16,WNW,293,1.6,3.8,51,0.00,,,0.00,WUHU216HW,2013-01-17 19:44:00,
2013-01-17 14:49:00,39.6,22.9,30.16,WNW,293,3.1,3.4,51,0.00,,,0.00,WUHU216HW,2013-01-17 19:49:00,
2013-01-17 14:54:00,39.4,22.3,30.16,WSW,248,2.5,3.1,50,0.00,,,0.00,WUHU216HW,2013-01-17 19:54:00,
2013-01-17 14:59:00,39.4,22.8,30.16,North,0,1.3,3.4,51,0.00,,,0.00,WUHU216HW,2013-01-17 19:59:00,
2013-01-17 15:04:00,39.2,21.6,30.16,WSW,248,4.5,4.5,49,0.00,,,0.00,WUHU216HW,2013-01-17 20:04:00,
2013-01-17 15:09:00,38.9,21.8,30.16,NW,315,1.8,4.5,50,0.00,,,0.00,WUHU216HW,2013-01-17 20:09:00,
2013-01-17 15:14:00,39.2,22.1,30.16,NW,315,2.2,4.7,50,0.00,,,0.00,WUHU216HW,2013-01-17 20:14:00,
2013-01-17 15:19:00,39.6,22.9,30.16,WSW,248,1.1,4.7,51,0.00,,,0.00,WUHU216HW,2013-01-17 20:19:00,
2013-01-17 15:24:00,39.2,21.6,30.16,WSW,248,4.7,4.7,49,0.00,,,0.00,WUHU216HW,2013-01-17 20:24:00,
2013-01-17 15:29:00,38.5,21.5,30.16,West,270,1.8,4.7,50,0.00,,,0.00,WUHU216HW,2013-01-17 20:29:00,
2013-01-17 15:34:00,38.2,20.6,30.16,WSW,248,3.1,4.0,49,0.00,,,0.00,WUHU216HW,2013-01-17 20:34:00,
2013-01-17 15:39:00,37.4,20.0,30.16,West,270,4.3,4.3,49,0.00,,,0.00,WUHU216HW,2013-01-17 20:39:00,
2013-01-17 15:44:00,36.9,20.1,30.16,NNW,338,1.3,4.3,50,0.00,,,0.00,WUHU216HW,2013-01-17 20:44:00,
2013-01-17 15:49:00,37.1,19.7,30.16,WSW,248,2.5,4.0,49,0.00,,,0.00,WUHU216HW,2013-01-17 20:49:00,
2013-01-17 15:54:00,37.1,19.7,30.17,NW,315,3.8,4.0,49,0.00,,,0.00,WUHU216HW,2013-01-17 20:54:00,
2013-01-17 15:59:00,37.4,20.0,30.17,NW,315,2.2,3.8,49,0.00,,,0.00,WUHU216HW,2013-01-17 20:59:00,
2013-01-17 16:04:00,36.9,18.5,30.17,West,270,3.4,4.5,47,0.00,,,0.00,WUHU216HW,2013-01-17 21:04:00,
2013-01-17 16:09:00,36.0,18.2,30.18,NW,315,2.0,4.7,48,0.00,,,0.00,WUHU216HW,2013-01-17 21:09:00,
2013-01-17 16:14:00,36.2,18.9,30.18,WNW,293,1.1,4.7,49,0.00,,,0.00,WUHU216HW,2013-01-17 21:14:00,
2013-01-17 16:19:00,36.0,18.2,30.18,WNW,293,2.7,3.4,48,0.00,,,0.00,WUHU216HW,2013-01-17 21:19:00,
2013-01-17 16:24:00,35.3,17.5,30.18,West,270,2.5,4.0,48,0.00,,,0.00,WUHU216HW,2013-01-17 21:24:00,
2013-01-17 16:29:00,34.7,17.5,30.19,SSW,203,4.9,4.9,49,0.00,,,0.00,WUHU216HW,2013-01-17 21:29:00,
2013-01-17 16:34:00,34.9,17.2,30.19,NNW,338,4.3,4.9,48,0.00,,,0.00,WUHU216HW,2013-01-17 21:34:00,
2013-01-17 16:39:00,34.9,16.7,30.19,WNW,293,3.6,4.7,47,0.00,,,0.00,WUHU216HW,2013-01-17 21:39:00,
2013-01-17 16:44:00,34.2,15.9,30.19,NW,315,1.6,4.0,47,0.00,,,0.00,WUHU216HW,2013-01-17 21:44:00,
2013-01-17 16:49:00,33.8,15.6,30.20,West,270,2.9,4.7,47,0.00,,,0.00,WUHU216HW,2013-01-17 21:49:00,
2013-01-17 16:54:00,34.0,15.8,30.20,NW,315,1.1,4.7,47,0.00,,,0.00,WUHU216HW,2013-01-17 21:54:00,
2013-01-17 16:59:00,33.8,15.6,30.20,West,270,2.2,3.6,47,0.00,,,0.00,WUHU216HW,2013-01-17 21:59:00,
2013-01-17 17:04:00,33.1,14.9,30.21,NW,315,3.1,3.6,47,0.00,,,0.00,WUHU216HW,2013-01-17 22:04:00,
2013-01-17 17:09:00,32.4,15.3,30.21,West,270,1.3,3.6,49,0.00,,,0.00,WUHU216HW,2013-01-17 22:09:00,
2013-01-17 17:14:00,31.9,14.9,30.22,NNW,338,0.4,4.0,49,0.00,,,0.00,WUHU216HW,2013-01-17 22:14:00,
2013-01-17 17:19:00,31.3,14.9,30.22,NNW,338,3.6,4.0,50,0.00,,,0.00,WUHU216HW,2013-01-17 22:19:00,
2013-01-17 17:24:00,30.8,14.8,30.22,NNW,338,4.0,4.7,51,0.00,,,0.00,WUHU216HW,2013-01-17 22:24:00,
2013-01-17 17:29:00,30.6,14.6,30.23,NNW,338,2.5,4.7,51,0.00,,,0.00,WUHU216HW,2013-01-17 22:29:00,
2013-01-17 17:34:00,30.1,14.5,30.23,NNW,338,2.9,3.6,52,0.00,,,0.00,WUHU216HW,2013-01-17 22:34:00,
2013-01-17 17:39:00,29.9,14.4,30.24,West,270,3.6,3.6,52,0.00,,,0.00,WUHU216HW,2013-01-17 22:39:00,
2013-01-17 17:44:00,29.7,14.2,30.24,WNW,293,2.9,3.6,52,0.00,,,0.00,WUHU216HW,2013-01-17 22:44:00,
2013-01-17 17:49:00,29.2,13.7,30.23,NW,315,1.6,3.4,52,0.00,,,0.00,WUHU216HW,2013-01-17 22:49:00,
2013-01-17 17:54:00,29.0,13.6,30.24,WNW,293,2.9,3.4,52,0.00,,,0.00,WUHU216HW,2013-01-17 22:54:00,
2013-01-17 17:59:00,28.8,13.4,30.24,NW,315,2.5,3.1,52,0.00,,,0.00,WUHU216HW,2013-01-17 22:59:00,
2013-01-17 18:04:00,28.4,13.1,30.25,West,270,1.1,2.5,52,0.00,,,0.00,WUHU216HW,2013-01-17 23:04:00,
2013-01-17 18:09:00,28.3,12.9,30.25,West,270,3.1,5.1,52,0.00,,,0.00,WUHU216HW,2013-01-17 23:09:00,
2013-01-17 18:14:00,28.1,13.2,30.26,NW,315,1.8,5.4,53,0.00,,,0.00,WUHU216HW,2013-01-17 23:14:00,
2013-01-17 18:19:00,27.9,13.0,30.26,NW,315,4.5,5.4,53,0.00,,,0.00,WUHU216HW,2013-01-17 23:19:00,
2013-01-17 18:24:00,27.7,13.1,30.26,NW,315,3.4,4.5,54,0.00,,,0.00,WUHU216HW,2013-01-17 23:24:00,
2013-01-17 18:29:00,27.4,12.8,30.27,NW,315,1.8,4.3,54,0.00,,,0.00,WUHU216HW,2013-01-17 23:29:00,
2013-01-17 18:34:00,27.2,12.6,30.27,West,270,2.9,4.3,54,0.00,,,0.00,WUHU216HW,2013-01-17 23:34:00,
2013-01-17 18:39:00,27.0,12.4,30.27,West,270,1.3,3.1,54,0.00,,,0.00,WUHU216HW,2013-01-17 23:39:00,
2013-01-17 18:44:00,26.6,12.5,30.27,NW,315,1.1,3.4,55,0.00,,,0.00,WUHU216HW,2013-01-17 23:44:00,
2013-01-17 18:49:00,26.3,12.2,30.28,WNW,293,2.9,3.4,55,0.00,,,0.00,WUHU216HW,2013-01-17 23:49:00,
2013-01-17 18:54:00,26.1,12.4,30.28,West,270,2.0,2.9,56,0.00,,,0.00,WUHU216HW,2013-01-17 23:54:00,
2013-01-17 18:59:00,25.9,12.7,30.28,WNW,293,1.1,3.4,57,0.00,,,0.00,WUHU216HW,2013-01-17 23:59:00,
2013-01-17 19:04:00,25.6,12.3,30.28,WNW,293,2.2,3.4,57,0.00,,,0.00,WUHU216HW,2013-01-18 00:04:00,
2013-01-17 19:09:00,25.6,12.8,30.28,WNW,293,1.8,2.2,58,0.00,,,0.00,WUHU216HW,2013-01-18 00:09:00,
2013-01-17 19:14:00,25.4,12.6,30.29,NW,315,1.8,2.5,58,0.00,,,0.00,WUHU216HW,2013-01-18 00:14:00,
2013-01-17 19:19:00,25.0,12.3,30.29,WSW,248,2.0,2.9,58,0.00,,,0.00,WUHU216HW,2013-01-18 00:19:00,
2013-01-17 19:24:00,24.8,12.2,30.30,WNW,293,2.5,5.6,58,0.00,,,0.00,WUHU216HW,2013-01-18 00:24:00,
2013-01-17 19:29:00,24.7,12.3,30.30,NW,315,3.4,5.6,59,0.00,,,0.00,WUHU216HW,2013-01-18 00:29:00,
2013-01-17 19:34:00,24.5,11.8,30.31,WNW,293,1.8,4.5,58,0.00,,,0.00,WUHU216HW,2013-01-18 00:34:00,
2013-01-17 19:39:00,24.3,11.6,30.31,WNW,293,3.4,4.5,58,0.00,,,0.00,WUHU216HW,2013-01-18 00:39:00,
2013-01-17 19:44:00,24.1,11.4,30.32,NNW,338,2.5,3.4,58,0.00,,,0.00,WUHU216HW,2013-01-18 00:44:00,
2013-01-17 19:49:00,23.9,11.3,30.32,WNW,293,2.2,2.9,58,0.00,,,0.00,WUHU216HW,2013-01-18 00:49:00,
2013-01-17 19:54:00,23.8,11.1,30.32,NW,315,0.7,3.1,58,0.00,,,0.00,WUHU216HW,2013-01-18 00:54:00,
2013-01-17 19:59:00,23.6,10.9,30.32,West,270,2.5,3.4,58,0.00,,,0.00,WUHU216HW,2013-01-18 00:59:00,
2013-01-17 20:04:00,23.4,10.7,30.33,WNW,293,1.3,3.4,58,0.00,,,0.00,WUHU216HW,2013-01-18 01:04:00,
2013-01-17 20:09:00,23.2,10.5,30.33,WNW,293,2.2,4.7,58,0.00,,,0.00,WUHU216HW,2013-01-18 01:09:00,
2013-01-17 20:14:00,23.0,10.4,30.33,NW,315,4.0,5.8,58,0.00,,,0.00,WUHU216HW,2013-01-18 01:14:00,
2013-01-17 20:19:00,22.7,9.6,30.33,NW,315,1.6,5.8,57,0.00,,,0.00,WUHU216HW,2013-01-18 01:19:00,
2013-01-17 20:24:00,22.7,9.6,30.34,WNW,293,1.6,4.7,57,0.00,,,0.00,WUHU216HW,2013-01-18 01:24:00,
2013-01-17 20:29:00,22.5,9.5,30.34,West,270,1.1,3.4,57,0.00,,,0.00,WUHU216HW,2013-01-18 01:29:00,
2013-01-17 20:34:00,22.3,9.3,30.34,WNW,293,1.1,3.4,57,0.00,,,0.00,WUHU216HW,2013-01-18 01:34:00,
2013-01-17 20:39:00,22.1,8.7,30.34,NW,315,2.0,2.2,56,0.00,,,0.00,WUHU216HW,2013-01-18 01:39:00,
2013-01-17 20:44:00,22.0,8.6,30.34,WNW,293,1.6,3.1,56,0.00,,,0.00,WUHU216HW,2013-01-18 01:44:00,
2013-01-17 20:49:00,21.8,8.0,30.34,WNW,293,4.7,4.7,55,0.00,,,0.00,WUHU216HW,2013-01-18 01:49:00,
2013-01-17 20:54:00,21.6,7.8,30.34,WSW,248,2.5,4.7,55,0.00,,,0.00,WUHU216HW,2013-01-18 01:54:00,
2013-01-17 20:59:00,21.4,7.7,30.34,West,270,3.4,4.3,55,0.00,,,0.00,WUHU216HW,2013-01-18 01:59:00,
2013-01-17 21:04:00,21.2,7.5,30.34,SSW,203,1.3,5.4,55,0.00,,,0.00,WUHU216HW,2013-01-18 02:04:00,
2013-01-17 21:09:00,21.2,7.0,30.35,WNW,293,1.1,5.4,54,0.00,,,0.00,WUHU216HW,2013-01-18 02:09:00,
2013-01-17 21:14:00,21.2,7.0,30.35,WNW,293,1.3,5.8,54,0.00,,,0.00,WUHU216HW,2013-01-18 02:14:00,
2013-01-17 21:19:00,20.9,6.8,30.35,NW,315,2.7,5.8,54,0.00,,,0.00,WUHU216HW,2013-01-18 02:19:00,
2013-01-17 21:24:00,20.9,6.3,30.35,WNW,293,1.6,3.8,53,0.00,,,0.00,WUHU216HW,2013-01-18 02:24:00,
2013-01-17 21:29:00,20.9,6.8,30.35,West,270,1.6,3.8,54,0.00,,,0.00,WUHU216HW,2013-01-18 02:29:00,
2013-01-17 21:34:00,20.7,6.6,30.35,WNW,293,1.1,3.4,54,0.00,,,0.00,WUHU216HW,2013-01-18 02:34:00,
2013-01-17 21:39:00,20.7,6.6,30.35,WNW,293,1.3,4.7,54,0.00,,,0.00,WUHU216HW,2013-01-18 02:39:00,
2013-01-17 21:44:00,20.5,5.9,30.35,WSW,248,1.8,5.1,53,0.00,,,0.00,WUHU216HW,2013-01-18 02:44:00,
2013-01-17 21:49:00,20.5,6.4,30.35,West,270,1.6,5.1,54,0.00,,,0.00,WUHU216HW,2013-01-18 02:49:00,
2013-01-17 21:54:00,20.5,6.4,30.35,West,270,2.2,4.0,54,0.00,,,0.00,WUHU216HW,2013-01-18 02:54:00,
2013-01-17 21:59:00,20.5,6.4,30.35,WSW,248,0.2,4.0,54,0.00,,,0.00,WUHU216HW,2013-01-18 02:59:00,
2013-01-17 22:04:00,20.5,6.4,30.35,WNW,293,0.0,1.6,54,0.00,,,0.00,WUHU216HW,2013-01-18 03:04:00,
2013-01-17 22:09:00,20.5,6.8,30.35,WSW,248,0.4,1.6,55,0.00,,,0.00,WUHU216HW,2013-01-18 03:09:00,
2013-01-17 22:14:00,20.5,6.8,30.35,NNW,338,0.4,2.5,55,0.00,,,0.00,WUHU216HW,2013-01-18 03:14:00,
2013-01-17 22:19:00,20.7,6.6,30.35,NW,315,0.7,2.9,54,0.00,,,0.00,WUHU216HW,2013-01-18 03:19:00,
2013-01-17 22:24:00,20.7,6.9,30.35,West,270,2.5,2.9,55,0.00,,,0.00,WUHU216HW,2013-01-18 03:24:00,
2013-01-17 22:29:00,20.7,6.9,30.35,WSW,248,1.8,2.5,55,0.00,,,0.00,WUHU216HW,2013-01-18 03:29:00,
2013-01-17 22:34:00,20.7,6.9,30.34,NW,315,2.0,2.5,55,0.00,,,0.00,WUHU216HW,2013-01-18 03:34:00,
2013-01-17 22:39:00,20.7,6.9,30.35,WNW,293,1.3,2.5,55,0.00,,,0.00,WUHU216HW,2013-01-18 03:39:00,
2013-01-17 22:44:00,20.7,6.9,30.34,NW,315,0.4,1.3,55,0.00,,,0.00,WUHU216HW,2013-01-18 03:44:00,
2013-01-17 22:49:00,20.7,6.9,30.34,WNW,293,0.4,2.0,55,0.00,,,0.00,WUHU216HW,2013-01-18 03:49:00,
2013-01-17 22:54:00,20.7,6.9,30.34,West,270,1.6,2.0,55,0.00,,,0.00,WUHU216HW,2013-01-18 03:54:00,
2013-01-17 22:59:00,20.9,7.1,30.34,WNW,293,1.1,1.8,55,0.00,,,0.00,WUHU216HW,2013-01-18 03:59:00,
2013-01-17 23:04:00,20.9,7.1,30.34,NW,315,0.9,1.3,55,0.00,,,0.00,WUHU216HW,2013-01-18 04:04:00,
2013-01-17 23:09:00,20.9,7.1,30.34,WNW,293,0.9,1.3,55,0.00,,,0.00,WUHU216HW,2013-01-18 04:09:00,
2013-01-17 23:14:00,20.9,7.1,30.34,NW,315,0.4,1.6,55,0.00,,,0.00,WUHU216HW,2013-01-18 04:14:00,
2013-01-17 23:19:00,20.9,7.1,30.34,West,270,0.9,1.6,55,0.00,,,0.00,WUHU216HW,2013-01-18 04:19:00,
2013-01-17 23:24:00,20.7,6.9,30.34,WNW,293,0.9,1.6,55,0.00,,,0.00,WUHU216HW,2013-01-18 04:24:00,
2013-01-17 23:29:00,20.7,6.9,30.34,WSW,248,0.2,1.6,55,0.00,,,0.00,WUHU216HW,2013-01-18 04:29:00,
2013-01-17 23:34:00,20.7,7.4,30.34,WNW,293,0.4,1.1,56,0.00,,,0.00,WUHU216HW,2013-01-18 04:34:00,
2013-01-17 23:39:00,20.9,7.6,30.34,WSW,248,0.4,1.1,56,0.00,,,0.00,WUHU216HW,2013-01-18 04:39:00,
2013-01-17 23:44:00,20.9,7.6,30.34,WNW,293,1.6,1.6,56,0.00,,,0.00,WUHU216HW,2013-01-18 04:44:00,
2013-01-17 23:49:00,20.9,7.6,30.35,SSW,203,0.4,1.6,56,0.00,,,0.00,WUHU216HW,2013-01-18 04:49:00,
2013-01-17 23:54:00,20.9,7.6,30.35,NW,315,1.3,1.3,56,0.00,,,0.00,WUHU216HW,2013-01-18 04:54:00,
2013-01-17 23:59:00,20.9,7.6,30.35,WNW,293,0.4,1.8,56,0.00,,,0.00,WUHU216HW,2013-01-18 04:59:00,